Regional Weather Roundup
Issued by NWS

Home | Current Version | Previous Version | Graphics & Text | Print | Product List | Glossary On
Versions: 1 2 3 4 5 6 7 8 9 10 11 12 13 14 15 16 17 18 19 20 21 22 23 24 25 26 27 28 29 30 31 32 33 34 35 36 37 38 39 40 41 42 43 44 45 46 47 48 49 50
000
ASUS43 KDMX 061307
RWRIA

WEATHER ROUNDUP FOR IOWA
NATIONAL WEATHER SERVICE DES MOINES IA
800 AM CDT WED MAY 06 2015

NOTE: "FAIR" INDICATES FEW OR NO CLOUDS BELOW 12,000 FEET WITH NO
SIGNIFICANT WEATHER AND/OR OBSTRUCTIONS TO VISIBILITY.

* - THESE STATIONS ARE NOT NWS STATIONS...THUS NOT UNDER NWS
QUALITY CONTROL.  THEY ALSO DO NOT REPORT WEATHER SUCH
AS PRECIPITATION OR FOG.

IAZ001>003-012>014-020>022-031>034-043>046-061400-
   NORTHWEST IOWA

CITY           SKY/WX    TMP DP  RH WIND       PRES   REMARKS
CARROLL *      MOSUNNY   63  61  94 SE13      29.96S
CHEROKEE *     CLOUDY    63  61  94 SE13G21   29.94S FOG
DENISON *      SUNNY     63  63 100 SE10G16   29.91F
LE MARS *      PTSUNNY   63  59  88 SE13G21   29.91S
ORANGE CITY *  MOSUNNY   63  57  82 SE13G18   29.92S
SHELDON *      PTSUNNY   63  63 100 SE18      29.92F FOG
SIOUX CITY     LGT RAIN  64  59  83 SE14      29.88F
SPENCER        CLOUDY    62  61  96 SE18      29.96F FOG
STORM LAKE *   FOG       61  61 100 SE15      29.96S VSB 1
$$

IAZ055>058-069>071-079>083-090>094-061400-
   SOUTHWEST IOWA

CITY           SKY/WX    TMP DP  RH WIND       PRES   REMARKS
ATLANTIC *     SUNNY     64  59  82 SE13      29.92F
AUDUBON *      SUNNY     64  59  82 SE7       29.95F
CLARINDA *     PTSUNNY   64  59  82 SE8G16    29.92F
COUNCIL BLFS * CLOUDY    63  63 100 SE16      29.87F
CRESTON *      SUNNY     64  61  88 SE13G18   29.97S
HARLAN  *      SUNNY     64  64 100 SE12      29.94F
LAMONI         PTSUNNY   67  56  67 SE12G18   29.98S
RED OAK *      CLOUDY    66  59  77 SE14      29.90F
SHENANDOAH *   CLOUDY    66  61  82 SE13G21   29.89F
$$

IAZ047>049-059>061-072>074-084-061400-
   CENTRAL IOWA

CITY           SKY/WX    TMP DP  RH WIND       PRES   REMARKS
AMES           CLOUDY    64  60  87 SE12      30.01S FOG
ANKENY *       MOSUNNY   66  61  82 SE9       30.01S
CHARITON *     SUNNY     66  57  72 SE17      30.01F
DES MOINES     CLOUDY    67  57  70 SE10      30.00S
GRINNELL*        N/A     63  61  94 E12       30.06S FOG
KNOXVILLE *    SUNNY     66  57  72 SE12      30.01F
MARSHALLTOWN   PTSUNNY   63  61  93 SE13      30.05R FOG
PELLA *        CLOUDY    66  61  82 SE8       30.05S
PERRY *        PTSUNNY   64  59  82 SE14      29.98F
$$

IAZ004>006-015-016-023>025-035-036-061400-
   NORTH CENTRAL IOWA

CITY           SKY/WX    TMP DP  RH WIND       PRES   REMARKS
ALGONA *       FOG       61  61 100 SE21      30.01S VSB 1/4
CLARION *      FOG       61  61 100 SE16      30.02S VSB 1/2
ESTHERVILLE    FOG       59  59 100 SE20      29.99S VSB 1
FORT DODGE *   CLOUDY    63  59  88 SE14G20   30.00F
MASON CITY     FOG       56  56 100 SE16      30.07S VSB 1/4
FOREST CITY *  FOG       55  55 100 SE12G18   30.04S VSB 1/4
IOWA FALLS *   FOG       61  61 100 SE13      30.06S VSB 3/4
$$

IAZ007>011-017>019-026>030-037>042-050>054-066-061400-
   NORTHEAST IOWA

CITY           SKY/WX    TMP DP  RH WIND       PRES   REMARKS
CEDAR RAPIDS   FOG       57  57 100 E13       30.09S VSB 1
CHARLES CITY * FOG       55  55 100 SE12      30.09S VSB 1/4
CLINTON *      CLOUDY    55  54  94 SE12      30.17R VSB 1/2
DECORAH *      FOG       54  54 100 VRB7      30.11S VSB 1
DUBUQUE        FOG       53  53 100 SE7       30.14R VSB 1/4
MONTICELLO *   CLOUDY    55  55 100 SE9       30.13R FOG
OELWEIN *      FOG       55  55 100 SE13      30.11R VSB 1/4
WATERLOO       FOG       57  57 100 SE13      30.08R VSB 1/2
$$

IAZ064-065-067-068-078-061400-
   EAST CENTRAL IOWA

CITY           SKY/WX    TMP DP  RH WIND       PRES   REMARKS
DAVENPORT      CLOUDY    57  56  96 SE13      30.13S FOG
IOWA CITY      PTSUNNY   59  57  93 E5        30.12R FOG
MT. PLEASANT * MOSUNNY   68  61  77 SE9       30.10S
MUSCATINE *    PTSUNNY   63  59  88 E5        30.12R HAZE
QUAD CITIES    CLOUDY    59  57  93 E9        30.13R FOG
$$

IAZ062-063-075>077-085>089-095>099-061400-
   SOUTHEAST IOWA

CITY           SKY/WX    TMP DP  RH WIND       PRES   REMARKS
BURLINGTON     PTSUNNY   68  61  78 S6        30.10R
FAIRFIELD *    MOSUNNY   66  59  77 SE10      30.08S
FORT MADISON * MOSUNNY   66  57  72 S9        30.11S
KEOKUK *       PTSUNNY   68  59  73 S6        30.09S
OSKALOOSA *      N/A     64  59  82 SE10      30.06F
CENTERVILLE *  SUNNY     66  59  77 SE13      30.05S
OTTUMWA        MOSUNNY   66  58  75 SE12      30.04F
WASHINGTON *   MOSUNNY   63 N/A N/A SE9       30.09F FOG
$$

ABBREVIATIONS USED IN REMARKS
   TC - TEMPERATURES IN CELSIUS
  WCI - WIND CHILL INDEX
   HX - HEAT INDEX
  VSB - VISIBILITY
$$




USA.gov is the U.S. government's official web portal to all federal, state and local government web resources and services.